Tracking 18876 objects as of 15-Dec-2017
HD Live streaming from Space Station
objects crossing your sky now

METEOR 2-6 DEB

Track METEOR 2-6 DEB now!
10-day predictions


NORAD ID: 31406
Int'l Code: 1980-073H
Perigee: 791.7 km
Apogee: 856.6 km
Inclination: 81.2 °
Period: 101.2 minutes
Semi major axis: 7195 km
RCS: 0.0145 m2 (small)
Launch date: September 9, 1980
Source: Commonwealth of Independent States (former USSR) (CIS)
Launch site: PLESETSK MISSILE AND SPACE COMPLEX (PKMTR)

Note: This is SATELLITE DEBRIS
aabbcc
Your satellite tracking list
Your tracking list is empty




NASA's NSSDC Master Catalog

Two Line Element Set (TLE):
1 31406U 80073H   17335.99872176  .00001241  00000-0  54588-3 0  9991
2 31406  81.2223 222.1924 0045094 236.9408 122.7435 14.22477244571431
Source of the keplerian elements: AFSPC